Погода в Никольском 1-ом

Россия / Воронежская область     50°35′16″N   41°08′57″E
темп.,
°C
ветер,
м/с
пор.,
м/с
влажн.,
%
обл.,
%
осадки,
мм/ч
давл.,
гПа
погр.,
м
13 июня, вс
вс1300:00+15ююз38935 0.0 1010154
03:00+14ююз36955 0.0 1010111
06:00+16ююз25915 0.0 1010175
09:00+20ююз45764 0.1 1011717
12:00+23ююз456428 0.3 10101397
15:00+23ююз45688 3.3 10101137
18:00+22юз35750 1.1 1010879
21:00+18ююз228467 1.6 101111
14 июня, пн
пн1400:00+16ю228889 0.0 101211
03:00+15ююв00870 0.0 101211
06:00+18в11830 0.0 101363
09:00+22в1167100 0.1 1013416
12:00+25юв2254100 0.1 10141590
15:00+25в1160100 0.2 10131111
18:00+22вюв347763 0.5 1013370
21:00+18в2290100 1.1 101415
15 июня, вт
вт1500:00+16вюв2294100 0.1 101330
03:00+15вюв119587 0.2 101311
06:00+17всв129331 0.4 1013125
09:00+19с348152 0.5 1012714
12:00+20с448373 0.5 1012746
15:00+19ссз448572 0.7 1011574
18:00+20зсз338177 0.0 1010686
21:00+17зсз239137 0.1 101062
16 июня, ср
ср1600:00+15сз22974 0.0 101022
03:00+14зсз229730 0.0 101016
06:00+16зсз119186 0.0 101091
09:00+21з237538 0.0 1011542
12:00+24з226189 0.0 10101170
15:00+26ссз2258100 0.0 10101397
18:00+24сз1373100 0.0 1011254
21:00+19юз1184100 2.4 101211
17 июня, чт
чт1700:00+18всв228891 0.0 101216
03:00+17ссв22900 0.0 101215
06:00+18св36920 0.0 1014215
09:00+22св55770 0.0 1014575
12:00+24св667020 0.0 10151047
15:00+23св787789 0.0 1016939
18:00+21св7118177 0.0 1016850
21:00+20всв6138315 0.0 1017699